Sturgeon Bay, WI

5:51 PM CDT on March 28, 2017 (GMT -0500)
Door County Cherryland

Weather History for KSUE - December, 2013

Change the Weather History Date:

Thursday, December 12, 2013

  Actual Average Record
Temperature  
Mean Temperature 6 °F -  
Max Temperature 15 °F 32 °F 56 °F (1913)
Min Temperature -2 °F 18 °F -8 °F (1927)
Degree Days  
Heating Degree Days 58    
Moisture  
Dew Point -2 °F    
Average Humidity 68    
Maximum Humidity 85    
Minimum Humidity 62    
Precipitation  
Precipitation 0.00 in - - ()
Sea Level Pressure  
Sea Level Pressure 30.19 in    
Wind  
Wind Speed 11 mph (WSW)    
Max Wind Speed 16 mph    
Max Gust Speed 23 mph    
Visibility 10 miles    
Events      
Averages and records for this station are not official NWS values.
T = Trace of Precipitation, MM = Missing Value Source: NWS Daily Summary

Daily Weather History Graph

Daily Weather History Graph

Search for Another Location

Airport or City:

Trip Planner

Search our weather history database for the weather conditions in past years. The results will help you decide how hot, cold, wet, or windy it might be!

Date:

Astronomy

Dec. 12, 2013 Rise Set
Actual Time 7:18 AM CST 4:08 PM CST
Civil Twilight 6:44 AM CST 4:42 PM CST
Nautical Twilight 6:07 AM CST 5:19 PM CST
Astronomical Twilight 5:32 AM CST 5:54 PM CST
Moon 1:23 PM CST (12/12) 2:31 AM CST (12/12)
Length of Visible Light 9h 57m
Length of Day
8h 50m
Waxing Gibbous, 80% of the Moon is Illuminated
Dec 12
Waxing Gibbous
Dec 17
Full
Dec 25
Last Quarter
Jan 1
New
Jan 7
First Quarter

Hourly Weather History & Observations

Time (CST) Temp. Windchill Dew Point Humidity Pressure Visibility Wind Dir Wind Speed Gust Speed Precip Events Conditions
12:15 AM -0.4 °F -16.7 °F -9.4 °F 66% 30.36 in 10.0 mi WSW 10.4 mph - N/A   Scattered Clouds
12:35 AM -2.2 °F -19.9 °F -9.4 °F 71% 30.36 in 10.0 mi West 11.5 mph - N/A   Partly Cloudy
12:55 AM -2.2 °F -20.7 °F -11.2 °F 66% 30.35 in 10.0 mi WSW 12.7 mph - N/A   Mostly Cloudy
1:15 AM -2.2 °F -18.9 °F -11.2 °F 66% 30.35 in 10.0 mi WSW 10.4 mph - N/A   Scattered Clouds
1:35 AM -2.2 °F -18.9 °F -11.2 °F 66% 30.34 in 10.0 mi WSW 10.4 mph - N/A   Mostly Cloudy
1:55 AM -2.2 °F -18.9 °F -11.2 °F 66% 30.33 in 10.0 mi SW 10.4 mph - N/A   Overcast
2:15 AM -2.2 °F -19.9 °F -11.2 °F 66% 30.33 in 10.0 mi WSW 11.5 mph - N/A   Overcast
2:35 AM -2.2 °F -19.9 °F -11.2 °F 66% 30.32 in 10.0 mi WSW 11.5 mph - N/A   Overcast
2:55 AM -2.2 °F -21.5 °F -9.4 °F 71% 30.31 in 10.0 mi WSW 13.8 mph - N/A   Overcast
3:15 AM -2.2 °F -18.9 °F -9.4 °F 71% 30.30 in 10.0 mi WSW 10.4 mph - N/A   Overcast
3:35 AM -2.2 °F -18.9 °F -11.2 °F 66% 30.30 in 10.0 mi WSW 10.4 mph - N/A   Overcast
3:55 AM -2.2 °F -18.9 °F -9.4 °F 71% 30.29 in 10.0 mi WSW 10.4 mph - N/A   Mostly Cloudy
4:15 AM -2.2 °F -16.8 °F -9.4 °F 71% 30.28 in 10.0 mi WSW 8.1 mph - N/A   Overcast
4:35 AM -0.4 °F -15.7 °F -9.4 °F 66% 30.27 in 8.0 mi WSW 9.2 mph - N/A   Overcast
4:55 AM -0.4 °F -16.7 °F -7.6 °F 72% 30.26 in 10.0 mi WSW 10.4 mph - N/A   Overcast
5:15 AM -0.4 °F -17.6 °F -7.6 °F 72% 30.25 in 7.0 mi WSW 11.5 mph - N/A   Overcast
5:35 AM -0.4 °F -14.7 °F -5.8 °F 78% 30.25 in 7.0 mi SW 8.1 mph - N/A   Overcast
5:55 AM -0.4 °F -15.7 °F -5.8 °F 78% 30.24 in 6.0 mi SW 9.2 mph - N/A   Overcast
6:15 AM 1.4 °F -13.5 °F -5.8 °F 72% 30.23 in 5.0 mi SW 9.2 mph - N/A   Overcast
6:35 AM 1.4 °F -13.5 °F -5.8 °F 72% 30.22 in 8.0 mi SW 9.2 mph - N/A   Overcast
6:55 AM 1.4 °F -12.5 °F -5.8 °F 72% 30.21 in 7.0 mi SW 8.1 mph - N/A   Overcast
7:15 AM 1.4 °F -13.5 °F -4.0 °F 78% 30.22 in 7.0 mi WSW 9.2 mph - N/A   Overcast
7:35 AM 1.4 °F -12.5 °F -4.0 °F 78% 30.22 in 10.0 mi WSW 8.1 mph - N/A   Overcast
7:55 AM 1.4 °F -13.5 °F -2.2 °F 85% 30.22 in 10.0 mi WSW 9.2 mph - N/A   Overcast
8:15 AM 1.4 °F -15.3 °F -4.0 °F 78% 30.21 in 10.0 mi WSW 11.5 mph - N/A   Overcast
8:35 AM 3.2 °F -13.1 °F -2.2 °F 78% 30.22 in 10.0 mi WSW 11.5 mph - N/A   Mostly Cloudy
8:55 AM 3.2 °F -14.6 °F -2.2 °F 78% 30.22 in 10.0 mi WSW 13.8 mph 19.6 mph N/A   Partly Cloudy
9:15 AM 3.2 °F -13.1 °F -2.2 °F 78% 30.21 in 10.0 mi West 11.5 mph 19.6 mph N/A   Clear
9:35 AM 3.2 °F -15.3 °F -4.0 °F 72% 30.22 in 10.0 mi West 15.0 mph 19.6 mph N/A   Clear
9:55 AM 5.0 °F -12.3 °F -4.0 °F 66% 30.21 in 10.0 mi West 13.8 mph 23.0 mph N/A   Clear
10:15 AM 5.0 °F -13.0 °F -2.2 °F 72% 30.20 in 10.0 mi West 15.0 mph 18.4 mph N/A   Clear
10:35 AM 6.8 °F -10.0 °F -2.2 °F 67% 30.20 in 10.0 mi West 13.8 mph - N/A   Clear
10:55 AM 6.8 °F -11.3 °F -0.4 °F 72% 30.18 in 10.0 mi West 16.1 mph - N/A   Clear
11:15 AM 6.8 °F -9.3 °F -2.2 °F 67% 30.18 in 10.0 mi West 12.7 mph - N/A   Clear
11:35 AM 8.6 °F -8.9 °F -2.2 °F 62% 30.17 in 10.0 mi WNW 16.1 mph - N/A   Clear
11:55 AM 8.6 °F -7.0 °F -0.4 °F 67% 30.16 in 10.0 mi West 12.7 mph - N/A   Clear
12:15 PM 8.6 °F -7.0 °F -0.4 °F 67% 30.17 in 10.0 mi West 12.7 mph - N/A   Clear
12:35 PM 8.6 °F -6.3 °F -0.4 °F 67% 30.16 in 10.0 mi West 11.5 mph - N/A   Clear
12:55 PM 8.6 °F -7.0 °F -0.4 °F 67% 30.16 in 10.0 mi West 12.7 mph - N/A   Clear
1:15 PM 8.6 °F -7.7 °F -0.4 °F 67% 30.15 in 10.0 mi WSW 13.8 mph - N/A   Clear
1:35 PM 8.6 °F -7.7 °F -2.2 °F 62% 30.15 in 10.0 mi West 13.8 mph - N/A   Clear
1:55 PM 10.4 °F -4.1 °F -0.4 °F 62% 30.14 in 10.0 mi West 11.5 mph - N/A   Clear
2:15 PM 10.4 °F -5.4 °F -0.4 °F 62% 30.13 in 10.0 mi West 13.8 mph - N/A   Clear
2:35 PM 10.4 °F -4.1 °F -0.4 °F 62% 30.13 in 10.0 mi WSW 11.5 mph - N/A   Clear
2:55 PM 12.2 °F -3.1 °F 1.4 °F 62% 30.13 in 10.0 mi West 13.8 mph - N/A   Clear
3:15 PM 12.2 °F -3.1 °F 1.4 °F 62% 30.13 in 10.0 mi WSW 13.8 mph 18.4 mph N/A   Clear
3:35 PM 10.4 °F -4.1 °F 1.4 °F 67% 30.13 in 10.0 mi WSW 11.5 mph - N/A   Clear
3:55 PM 10.4 °F -1.5 °F 1.4 °F 67% 30.13 in 10.0 mi WSW 8.1 mph - N/A   Clear
4:15 PM 10.4 °F -3.3 °F 1.4 °F 67% 30.13 in 10.0 mi WSW 10.4 mph - N/A   Clear
4:35 PM 10.4 °F -4.1 °F 1.4 °F 67% 30.13 in 10.0 mi WSW 11.5 mph - N/A   Mostly Cloudy
4:55 PM 12.2 °F -2.5 °F 3.2 °F 67% 30.13 in 10.0 mi WSW 12.7 mph - N/A   Overcast
5:15 PM 12.2 °F -1.8 °F 3.2 °F 67% 30.13 in 10.0 mi WSW 11.5 mph - N/A   Overcast
5:35 PM 14.0 °F 0.5 °F 3.2 °F 62% 30.13 in 10.0 mi WSW 11.5 mph - N/A   Overcast
5:55 PM 14.0 °F -0.2 °F 3.2 °F 62% 30.14 in 10.0 mi WSW 12.7 mph - N/A   Overcast
6:15 PM 14.0 °F -0.2 °F 3.2 °F 62% 30.13 in 10.0 mi WSW 12.7 mph 17.3 mph N/A   Overcast
6:35 PM 14.0 °F -0.2 °F 3.2 °F 62% 30.13 in 10.0 mi WSW 12.7 mph - N/A   Overcast
6:55 PM 14.0 °F -0.2 °F 5.0 °F 67% 30.12 in 10.0 mi WSW 12.7 mph - N/A   Overcast
7:15 PM 14.0 °F 0.5 °F 5.0 °F 67% 30.12 in 10.0 mi WSW 11.5 mph - N/A   Overcast
7:35 PM 15.8 °F 3.4 °F 5.0 °F 62% 30.12 in 10.0 mi WSW 10.4 mph - N/A   Overcast
7:55 PM 15.8 °F 3.4 °F 5.0 °F 62% 30.12 in 10.0 mi West 10.4 mph - N/A   Overcast
8:15 PM 15.8 °F 3.4 °F 5.0 °F 62% 30.12 in 10.0 mi West 10.4 mph - N/A   Overcast
8:35 PM 15.8 °F 4.2 °F 5.0 °F 62% 30.11 in 10.0 mi West 9.2 mph - N/A   Overcast
8:55 PM 15.8 °F 3.4 °F 5.0 °F 62% 30.11 in 10.0 mi West 10.4 mph - N/A   Overcast
9:15 PM 15.8 °F 3.4 °F 5.0 °F 62% 30.10 in 10.0 mi West 10.4 mph - N/A   Overcast
9:35 PM 15.8 °F 5.1 °F 5.0 °F 62% 30.10 in 10.0 mi West 8.1 mph - N/A   Overcast
9:55 PM 15.8 °F 4.2 °F 6.8 °F 68% 30.10 in 10.0 mi West 9.2 mph - N/A   Overcast
10:15 PM 15.8 °F 4.2 °F 5.0 °F 62% 30.11 in 10.0 mi West 9.2 mph - N/A   Overcast
10:35 PM 15.8 °F 2.7 °F 5.0 °F 62% 30.11 in 10.0 mi West 11.5 mph - N/A   Overcast
10:55 PM 15.8 °F 5.1 °F 5.0 °F 62% 30.11 in 10.0 mi West 8.1 mph - N/A   Overcast
11:15 PM 15.8 °F 3.4 °F 5.0 °F 62% 30.11 in 10.0 mi West 10.4 mph - N/A   Overcast
11:35 PM 15.8 °F 2.7 °F 5.0 °F 62% 30.12 in 10.0 mi West 11.5 mph - N/A   Overcast
11:55 PM 15.8 °F 2.1 °F 5.0 °F 62% 30.12 in 10.0 mi WNW 12.7 mph - N/A   Overcast